This is the latest recevied weather packets stored in our database for station/object DG2GGP-11. If no packets are shown the sender has not sent any weather packets the latest 10 day(s).
| Time | Temp. | Humidity | Pressure | Rain* | Wind** | Luminosity | Snow |
|---|---|---|---|---|---|---|---|
| 1777305962 | 21.11° C | 31% | 1018.8 hPa | 0 mm | - | 23 W/m² | - |
| 1777305362 | 21.11° C | 31% | 1018.8 hPa | 0 mm | - | 30 W/m² | - |
| 1777304762 | 21.11° C | 31% | 1018.9 hPa | 0 mm | - | 33 W/m² | - |
| 1777304162 | 21.11° C | 30% | 1019 hPa | 0 mm | - | 31 W/m² | - |
| 1777303562 | 21.11° C | 29% | 1019 hPa | 0 mm | - | 33 W/m² | - |
| 1777302962 | 21.67° C | 30% | 1019.1 hPa | 0 mm | - | 34 W/m² | - |
| 1777302362 | 21.67° C | 29% | 1019.1 hPa | 0 mm | - | 36 W/m² | - |
| 1777301762 | 21.67° C | 29% | 1019.1 hPa | 0 mm | - | 36 W/m² | - |
| 1777301162 | 21.67° C | 28% | 1019.2 hPa | 0 mm | - | 32 W/m² | - |
| 1777300562 | 22.22° C | 28% | 1019.3 hPa | 0 mm | - | 34 W/m² | - |
| 1777299962 | 21.67° C | 29% | 1019.3 hPa | 0 mm | - | 44 W/m² | - |
| 1777299362 | 21.67° C | 29% | 1019.4 hPa | 0 mm | - | 39 W/m² | - |
| 1777298762 | 21.67° C | 28% | 1019.4 hPa | 0 mm | - | 39 W/m² | - |
| 1777298162 | 21.67° C | 30% | 1019.5 hPa | 0 mm | - | 40 W/m² | - |
| 1777297562 | 21.67° C | 33% | 1019.7 hPa | 0 mm | - | 40 W/m² | - |
| 1777296962 | 21.67° C | 31% | 1019.9 hPa | 0 mm | - | 48 W/m² | - |
| 1777296362 | 21.67° C | 33% | 1020 hPa | 0 mm | - | 46 W/m² | - |
| 1777295762 | 21.67° C | 33% | 1020.1 hPa | 0 mm | - | 40 W/m² | - |
| 1777295162 | 21.67° C | 31% | 1020.1 hPa | 0 mm | - | 45 W/m² | - |
| 1777294562 | 21.67° C | 33% | 1020.1 hPa | 0 mm | - | 44 W/m² | - |
| 1777293962 | 22.22° C | 34% | 1020.2 hPa | 0 mm | - | 48 W/m² | - |
| 1777293362 | 21.67° C | 33% | 1020.2 hPa | 0 mm | - | 45 W/m² | - |
| 1777292762 | 21.67° C | 31% | 1020.2 hPa | 0 mm | - | 43 W/m² | - |
| 1777292162 | 21.67° C | 31% | 1020.3 hPa | 0 mm | - | 42 W/m² | - |
| 1777291562 | 21.67° C | 32% | 1020.4 hPa | 0 mm | - | 47 W/m² | - |
* Rain latest hour (hover to see other rain measurements)
** Current wind speed in m/s (hover to see current wind gust speed)